CW7858 Murcia ES current weather conditions

sailwx.info

Wind from 095

Air temperature 24.4° C
Dewpoint 20.6° C

Last reported at 2020-Aug-05 04:02 UTC.
Time now 2020-Aug-05 05:15 UTC

Location: N 37°60' W 001°08'.
View on Google Maps.

See reports from other nearby stations

  
Tides and Currents Weather Stations Pressure Air Temp Water Temp Dewpoint Dewpoint Depression Visibility Wind Speed Wind Dir Waves Ship Positions
date/time (UTC)wind fromknots sea level pressurealtimeterstation pressurevisibilityair tempwater tempwave heightnotes
2020-Aug-05 04:02 095 24.4
2020-Aug-05 03:52 095 25.0
2020-Aug-05 03:42 095 25.0
2020-Aug-05 03:32 095 25.0
2020-Aug-05 03:22 095 25.0
2020-Aug-05 03:12 095 0 gusting 2 25.0
2020-Aug-05 03:02 095 0 gusting 1 25.0
2020-Aug-05 02:52 095 0 gusting 1 25.0
2020-Aug-05 02:42 095 0 gusting 2 25.0
2020-Aug-05 02:32 095 0 gusting 4 25.0
2020-Aug-05 02:22 095 0 gusting 1 25.0
2020-Aug-05 02:12 095 25.0
2020-Aug-05 02:02 095 25.0
2020-Aug-05 01:52 095 25.0
2020-Aug-05 01:42 095 25.0
2020-Aug-05 01:32 095 0 gusting 4 25.0
2020-Aug-05 01:22 095 1 gusting 3 25.0
2020-Aug-05 01:12 095 0 gusting 3 25.0
2020-Aug-05 01:02 097 2 gusting 4 25.6
2020-Aug-05 00:52 104 1 gusting 4 25.6
2020-Aug-05 00:43 104 25.6
2020-Aug-05 00:32 104 0 gusting 3 25.6
2020-Aug-05 00:22 104 1 gusting 3 25.6
2020-Aug-05 00:12 068 25.6
2020-Aug-05 00:02 066 3 gusting 5 25.6
2020-Aug-04 23:52 068 25.6
2020-Aug-04 23:42 068 0 gusting 4 25.6
2020-Aug-04 23:32 066 0 gusting 2 25.6
2020-Aug-04 23:22 068 26.1
2020-Aug-04 23:12 068 0 gusting 5 26.1
2020-Aug-04 23:02 071 1 gusting 4 26.1
2020-Aug-04 22:52 072 0 gusting 3 26.1
2020-Aug-04 22:42 045 1 gusting 4 26.1
2020-Aug-04 22:32 076 1 gusting 5 26.1
2020-Aug-04 22:22 107 2 gusting 6 26.1
2020-Aug-04 22:12 076 1 gusting 6 26.1
2020-Aug-04 22:03 085 1 gusting 5 26.1
2020-Aug-04 21:52 095 1 gusting 7 26.1
2020-Aug-04 21:42 100 4 gusting 7 26.7
2020-Aug-04 21:32 095 2 gusting 6 26.7
2020-Aug-04 21:22 075 4 gusting 6 26.7
2020-Aug-04 21:12 109 2 gusting 6 26.7
2020-Aug-04 21:02 097 5 gusting 6 26.7
2020-Aug-04 20:52 092 3 gusting 8 26.7
2020-Aug-04 20:42 059 2 gusting 6 27.2
2020-Aug-04 20:32 080 5 gusting 8 27.2
2020-Aug-04 20:22 061 4 gusting 6 27.2
2020-Aug-04 20:12 145 5 gusting 9 27.2
2020-Aug-04 20:02 071 3 gusting 8 27.8
2020-Aug-04 19:52 114 1 gusting 6 27.8
2020-Aug-04 19:42 100 27.8
2020-Aug-04 19:32 096 4 gusting 10 27.8
2020-Aug-04 19:22 121 4 gusting 11 27.8
2020-Aug-04 19:12 107 5 gusting 8 27.8
2020-Aug-04 19:02 090 1 gusting 9 28.3
2020-Aug-04 18:52 126 4 gusting 9 28.3
2020-Aug-04 18:42 114 1 gusting 8 28.9
2020-Aug-04 18:32 088 3 gusting 10 28.9
2020-Aug-04 18:22 150 1 gusting 9 28.9
2020-Aug-04 18:12 121 3 gusting 10 28.9
2020-Aug-04 18:02 121 4 gusting 11 29.4
2020-Aug-04 17:52 128 5 gusting 10 30.0
2020-Aug-04 17:42 058 4 gusting 11 29.4
2020-Aug-04 17:32 123 5 gusting 14 29.4
2020-Aug-04 17:22 112 7 gusting 12 30.0
2020-Aug-04 17:12 120 5 gusting 15 30.0
2020-Aug-04 17:02 109 6 gusting 13 30.6
2020-Aug-04 16:52 151 2 gusting 14 30.6
2020-Aug-04 16:42 107 1 gusting 10 30.6
2020-Aug-04 16:32 128 4 gusting 13 31.1
2020-Aug-04 16:22 121 3 gusting 12 31.1
2020-Aug-04 16:12 134 1 gusting 13 31.7
2020-Aug-04 16:02 138 6 gusting 13 31.7
2020-Aug-04 15:52 130 3 gusting 11 32.2
2020-Aug-04 15:42 216 6 gusting 12 32.2
2020-Aug-04 15:32 110 1 gusting 12 32.8
2020-Aug-04 15:22 164 6 gusting 12 32.2
2020-Aug-04 15:12 138 6 gusting 15 32.2
2020-Aug-04 15:02 119 3 gusting 11 32.8
2020-Aug-04 14:52 104 3 gusting 12 32.8
2020-Aug-04 14:42 155 1 gusting 11 33.3
2020-Aug-04 14:32 246 0 gusting 9 33.3
2020-Aug-04 14:22 157 5 gusting 9 33.9
2020-Aug-04 14:12 186 0 gusting 8 33.9
2020-Aug-04 14:03 151 2 gusting 6 33.9
2020-Aug-04 13:52 120 1 gusting 9 33.3
2020-Aug-04 13:42 119 4 gusting 11 32.2
2020-Aug-04 13:32 121 2 gusting 11 32.2
2020-Aug-04 13:22 106 4 gusting 10 32.8
2020-Aug-04 13:12 134 3 gusting 5 32.8
2020-Aug-04 13:02 144 2 gusting 6 32.2
2020-Aug-04 12:52 193 2 gusting 7 32.2
2020-Aug-04 12:42 096 5 gusting 10 32.2
2020-Aug-04 12:32 099 5 gusting 9 32.8
2020-Aug-04 12:22 131 0 gusting 3 32.8
2020-Aug-04 12:12 114 0 gusting 5 32.2
2020-Aug-04 12:02 140 2 gusting 6 31.7
2020-Aug-04 11:52 086 0 gusting 6 31.1
2020-Aug-04 11:42 082 0 gusting 5 31.1
2020-Aug-04 11:32 080 0 gusting 6 31.1
2020-Aug-04 11:22 144 3 gusting 10 31.1
2020-Aug-04 11:12 137 30.6
2020-Aug-04 11:02 068 0 gusting 6 30.6
2020-Aug-04 10:52 165 0 gusting 5 31.1
2020-Aug-04 10:42 193 1 gusting 4 31.7
2020-Aug-04 10:32 120 2 gusting 5 31.1
2020-Aug-04 10:22 239 0 gusting 6 30.6
2020-Aug-04 10:12 140 1 gusting 8 30.0
2020-Aug-04 10:02 106 3 gusting 9 30.0
2020-Aug-04 09:52 138 0 gusting 10 30.0
2020-Aug-04 09:42 124 3 gusting 6 30.6
2020-Aug-04 09:32 131 0 gusting 6 30.0
2020-Aug-04 09:22 335 1 gusting 6 30.0
2020-Aug-04 09:12 102 0 gusting 2 30.0
2020-Aug-04 09:02 097 30.0
2020-Aug-04 08:52 114 2 gusting 4 30.6
2020-Aug-04 08:42 251 29.4
2020-Aug-04 08:32 144 2 gusting 5 29.4
2020-Aug-04 08:22 123 1 gusting 5 28.9
2020-Aug-04 08:12 154 0 gusting 6 28.3
2020-Aug-04 08:02 124 27.8
2020-Aug-04 07:52 110 0 gusting 5 27.2
2020-Aug-04 07:42 136 0 gusting 2 27.2
2020-Aug-04 07:32 136 0 gusting 1 27.2
2020-Aug-04 07:23 136 26.7
2020-Aug-04 07:12 147 26.7
2020-Aug-04 07:02 148 0 gusting 2 26.7
2020-Aug-04 06:52 148 0 gusting 4 26.7
2020-Aug-04 06:42 068 1 gusting 3 26.1
2020-Aug-04 06:32 078 3 gusting 5 26.1
2020-Aug-04 06:22 042 2 gusting 4 26.1
2020-Aug-04 06:12 079 0 gusting 3 26.1
2020-Aug-04 06:02 089 1 gusting 2 26.1
2020-Aug-04 05:52 096 1 gusting 5 26.1
2020-Aug-04 05:42 099 3 gusting 5 26.1
2020-Aug-04 05:32 079 0 gusting 4 26.1
2020-Aug-04 05:22 080 1 gusting 3 26.1
2020-Aug-04 05:12 083 0 gusting 4 26.1
2020-Aug-04 05:02 099 1 gusting 5 26.1
2020-Aug-04 04:52 076 0 gusting 2 26.1
2020-Aug-04 04:42 076 0 gusting 4 26.1
2020-Aug-04 04:32 102 1 gusting 4 26.1
2020-Aug-04 04:22 054 0 gusting 4 26.1
2020-Aug-04 04:12 088 0 gusting 4 26.1
2020-Aug-04 04:02 079 26.1
2020-Aug-04 03:52 080 0 gusting 3 26.1
2020-Aug-04 03:42 049 0 gusting 4 26.1
2020-Aug-04 03:32 089 1 gusting 5 26.1
2020-Aug-04 03:22 089 26.1
2020-Aug-04 03:12 092 1 gusting 4 26.1
2020-Aug-04 03:02 103 1 gusting 3 26.1
2020-Aug-04 02:52 104 1 gusting 2 26.1
2020-Aug-04 02:42 104 0 gusting 4 26.1
2020-Aug-04 02:32 107 26.1
2020-Aug-04 02:22 107 26.1
2020-Aug-04 02:12 107 0 gusting 2 26.1
2020-Aug-04 02:02 107 1 gusting 4 26.1
2020-Aug-04 01:52 107 0 gusting 3 26.1
2020-Aug-04 01:42 075 1 gusting 2 26.1
2020-Aug-04 01:32 075 0 gusting 2 26.1
2020-Aug-04 01:22 080 2 gusting 6 26.1
2020-Aug-04 01:12 116 2 gusting 6 26.1
2020-Aug-04 01:02 082 1 gusting 5 26.1
2020-Aug-04 00:52 075 2 gusting 6 26.1
2020-Aug-04 00:42 097 3 gusting 6 26.1
2020-Aug-04 00:32 088 2 gusting 5 26.1
2020-Aug-04 00:22 104 2 gusting 6 26.1
2020-Aug-04 00:12 064 1 gusting 5 26.1
2020-Aug-04 00:02 079 0 gusting 6 26.1
2020-Aug-03 23:52 079 2 gusting 6 26.1
2020-Aug-03 23:42 099 0 gusting 5 26.1
2020-Aug-03 23:32 069 2 gusting 5 26.1
2020-Aug-03 23:22 097 3 gusting 6 26.7
2020-Aug-03 23:12 079 1 gusting 6 26.7
2020-Aug-03 23:02 097 3 gusting 6 26.7
2020-Aug-03 22:52 086 2 gusting 6 26.7
2020-Aug-03 22:42 112 3 gusting 8 26.7
2020-Aug-03 22:32 082 5 gusting 6 26.7
2020-Aug-03 22:22 038 2 gusting 6 26.7
2020-Aug-03 22:13 073 1 gusting 6 26.7
2020-Aug-03 22:02 079 4 gusting 6 27.2
2020-Aug-03 21:52 068 4 gusting 6 27.2
2020-Aug-03 21:42 071 27.2
2020-Aug-03 21:32 082 0 gusting 6 27.2
2020-Aug-03 21:22 078 1 gusting 2 27.2
2020-Aug-03 21:12 082 1 gusting 5 27.2
2020-Aug-03 21:02 114 2 gusting 5 27.2
2020-Aug-03 20:52 096 2 gusting 7 27.2
2020-Aug-03 20:42 093 2 gusting 8 27.8
2020-Aug-03 20:32 080 3 gusting 6 27.8
2020-Aug-03 20:22 110 1 gusting 6 27.8
2020-Aug-03 20:12 076 1 gusting 5 27.8
2020-Aug-03 20:02 100 0 gusting 7 27.8
2020-Aug-03 19:52 082 3 gusting 8 27.8
2020-Aug-03 19:42 133 2 gusting 7 27.8
2020-Aug-03 19:32 120 2 gusting 8 28.3
2020-Aug-03 19:22 145 2 gusting 8 28.3
2020-Aug-03 19:12 136 2 gusting 10 28.3
2020-Aug-03 19:02 120 2 gusting 9 28.3
2020-Aug-03 18:52 120 3 gusting 7 28.9
2020-Aug-03 18:42 131 7 gusting 12 28.9
2020-Aug-03 18:32 110 1 gusting 10 28.9
2020-Aug-03 18:22 114 6 gusting 10 29.4
2020-Aug-03 18:12 080 1 gusting 9 29.4
2020-Aug-03 18:02 093 3 gusting 11 29.4
2020-Aug-03 17:52 072 2 gusting 10 29.4
2020-Aug-03 17:42 059 5 gusting 11 29.4
2020-Aug-03 17:32 065 6 gusting 15 29.4
2020-Aug-03 17:22 078 6 gusting 14 29.4
2020-Aug-03 17:12 056 8 gusting 14 30.0
2020-Aug-03 17:02 069 7 gusting 12 30.0
2020-Aug-03 16:52 069 7 gusting 12 30.0
2020-Aug-03 16:42 109 6 gusting 14 30.0
2020-Aug-03 16:32 097 7 gusting 15 30.0
2020-Aug-03 16:22 080 11 gusting 15 30.0
2020-Aug-03 16:12 066 8 gusting 18 30.6
2020-Aug-03 16:02 082 5 gusting 20 30.6
2020-Aug-03 15:52 076 5 gusting 17 30.6
2020-Aug-03 15:42 080 6 gusting 19 31.1
2020-Aug-03 15:32 069 7 gusting 20 31.1
2020-Aug-03 15:22 109 12 gusting 16 31.1
2020-Aug-03 15:12 049 7 gusting 17 31.7
2020-Aug-03 15:02 032 5 gusting 15 32.2
2020-Aug-03 14:52 109 7 gusting 15 32.2
2020-Aug-03 14:42 080 6 gusting 19 32.8
2020-Aug-03 14:32 095 2 gusting 13 32.8
2020-Aug-03 14:22 357 6 gusting 14 33.3
2020-Aug-03 14:12 092 6 gusting 13 33.9
2020-Aug-03 14:03 093 1 gusting 9 33.9
2020-Aug-03 13:52 082 3 gusting 8 34.4
2020-Aug-03 13:43 085 2 gusting 6 34.4
2020-Aug-03 13:32 080 1 gusting 7 33.9
2020-Aug-03 13:22 072 1 gusting 3 33.9
2020-Aug-03 13:12 025 1 gusting 6 33.3
2020-Aug-03 13:02 024 1 gusting 7 33.3
2020-Aug-03 12:52 352 0 gusting 5 32.8
2020-Aug-03 12:42 031 1 gusting 6 33.3
2020-Aug-03 12:32 028 0 gusting 5 32.8
2020-Aug-03 12:22 086 1 gusting 6 32.8
2020-Aug-03 12:12 260 0 gusting 4 33.3
2020-Aug-03 12:02 233 0 gusting 6 32.2
2020-Aug-03 11:52 093 0 gusting 6 32.2
2020-Aug-03 11:42 075 1 gusting 6 32.2
2020-Aug-03 11:32 093 2 gusting 5 32.2
2020-Aug-03 11:22 041 1 gusting 4 32.2
2020-Aug-03 11:12 107 4 gusting 6 31.1
2020-Aug-03 11:02 090 0 gusting 4 31.1
2020-Aug-03 10:52 085 1 gusting 6 31.1
2020-Aug-03 10:42 083 1 gusting 6 31.1
2020-Aug-03 10:32 089 1 gusting 4 31.1
2020-Aug-03 10:22 072 1 gusting 2 31.1
2020-Aug-03 10:12 131 30.6
2020-Aug-03 10:02 138 0 gusting 5 30.0
2020-Aug-03 09:52 030 1 gusting 6 29.4
2020-Aug-03 09:42 065 2 gusting 6 28.9
2020-Aug-03 09:32 089 0 gusting 6 29.4
2020-Aug-03 09:22 085 0 gusting 2 28.9
2020-Aug-03 09:12 075 1 gusting 4 28.3
2020-Aug-03 09:02 071 2 gusting 5 27.8
2020-Aug-03 08:52 054 3 gusting 6 27.8
2020-Aug-03 08:42 073 1 gusting 5 27.8
2020-Aug-03 08:32 028 1 gusting 2 27.8
2020-Aug-03 08:22 042 1 gusting 5 27.8
2020-Aug-03 08:12 028 1 gusting 5 27.8
2020-Aug-03 08:02 256 27.8
2020-Aug-03 07:52 244 27.8
2020-Aug-03 07:42 243 27.8
2020-Aug-03 07:32 243 27.2
2020-Aug-03 07:22 240 27.8
2020-Aug-03 07:12 086 27.8
2020-Aug-03 07:02 086 27.2
2020-Aug-03 06:52 086 0 gusting 4 26.7
2020-Aug-03 06:42 086 26.7
2020-Aug-03 06:32 093 0 gusting 3 26.1
2020-Aug-03 06:22 042 2 gusting 4 26.1
2020-Aug-03 06:12 045 1 gusting 4 26.1
2020-Aug-03 06:02 251 0 gusting 2 26.1
2020-Aug-03 05:52 208 26.1
2020-Aug-03 05:42 208 26.1
2020-Aug-03 05:32 208 26.1
2020-Aug-03 05:22 208 0 gusting 2 25.6
2020-Aug-03 05:12 208 0 gusting 3 25.6
2020-Aug-03 05:02 056 1 gusting 4 25.6